| time (UTC) | temp F | wind direction | speed MPH | gust MPH | rain 1hr in | rain 24hr in | rain mn in | humidity % | barometer mb |
| 20260831053041 | 87 | 128 | 1.0 | 4.0 | 0.00 | 0.00 | 0.00 | 50 | 1012.6 |
| 20260831051552 | 87 | 160 | 0.0 | 3.0 | 0.00 | 0.00 | 0.00 | 50 | 1012.4 |
| 20260831050037 | 87 | 121 | 0.0 | 3.0 | 0.00 | 0.00 | 0.00 | 49 | 1012.3 |
| 20260831044537 | 87 | 166 | 0.0 | 0.0 | 0.00 | 0.00 | 0.00 | 49 | 1012.3 |
| 20260831043036 | 88 | 161 | 0.0 | 2.0 | 0.00 | 0.00 | 0.00 | 48 | 1012.3 |
| 20260831041536 | 89 | 159 | 0.0 | 1.0 | 0.00 | 0.00 | 0.00 | 48 | 1012.2 |
| 20260831040043 | 89 | 172 | 0.0 | 1.0 | 0.00 | 0.00 | 0.00 | 47 | 1012.2 |
| 20260831034530 | 90 | 152 | 0.0 | 3.0 | 0.00 | 0.00 | 0.00 | 46 | 1012.1 |
| 20260831033032 | 90 | 149 | 0.0 | 3.0 | 0.00 | 0.00 | 0.00 | 46 | 1011.9 |
| 20260831031527 | 91 | 97 | 0.0 | 2.0 | 0.00 | 0.00 | 0.00 | 45 | 1011.9 |
| 20260831030029 | 91 | 138 | 0.0 | 2.0 | 0.00 | 0.00 | 0.00 | 44 | 1011.9 |
| 20260831024526 | 91 | 142 | 0.0 | 2.0 | 0.00 | 0.00 | 0.00 | 44 | 1011.7 |
| 20260831023036 | 92 | 159 | 0.0 | 1.0 | 0.00 | 0.00 | 0.00 | 43 | 1011.5 |
| 20260831021546 | 93 | 131 | 0.0 | 2.0 | 0.00 | 0.00 | 0.00 | 42 | 1011.2 |
| 20260831020023 | 93 | 107 | 0.0 | 1.0 | 0.00 | 0.00 | 0.00 | 41 | 1011.0 |
| 20260831014523 | 94 | 182 | 0.0 | 3.0 | 0.00 | 0.00 | 0.00 | 40 | 1010.7 |
| 20260831013023 | 94 | 127 | 0.0 | 6.0 | 0.00 | 0.00 | 0.00 | 39 | 1010.6 |
| 20260831011523 | 95 | 106 | 2.0 | 5.0 | 0.00 | 0.00 | 0.00 | 37 | 1010.4 |
| 20260831010040 | 95 | 171 | 1.0 | 6.0 | 0.00 | 0.00 | 0.00 | 36 | 1010.4 |
| 20260831004521 | 96 | 165 | 1.0 | 6.0 | 0.00 | 0.00 | 0.00 | 35 | 1010.3 |
| 20260831003021 | 96 | 142 | 1.0 | 5.0 | 0.00 | 0.00 | 0.00 | 34 | 1010.3 |
| 20260831001530 | 97 | 94 | 2.0 | 8.0 | 0.00 | 0.00 | 0.00 | 33 | 1010.3 |
| 20260831000019 | 98 | 130 | 2.0 | 8.0 | 0.00 | 0.00 | 0.00 | 32 | 1010.5 |
| 20260830234518 | 99 | 148 | 2.0 | 7.0 | 0.00 | 0.00 | 0.00 | 32 | 1010.5 |
| 20260830233018 | 100 | 124 | 2.0 | 7.0 | 0.00 | 0.00 | 0.00 | 31 | 1010.5 |
| 20260830231527 | 101 | 119 | 0.0 | 4.0 | 0.00 | 0.00 | 0.00 | 31 | 1010.5 |
| 20260830230016 | 102 | 345 | 1.0 | 8.0 | 0.00 | 0.00 | 0.00 | 31 | 1010.5 |
| 20260830224515 | 101 | 107 | 0.0 | 10.0 | 0.00 | 0.00 | 0.00 | 30 | 1010.7 |
| 20260830223018 | 101 | 182 | 2.0 | 9.0 | 0.00 | 0.00 | 0.00 | 30 | 1010.6 |
| 20260830221513 | 101 | 105 | 1.0 | 7.0 | 0.00 | 0.00 | 0.00 | 30 | 1010.8 |
| 20260830220014 | 101 | 220 | 3.0 | 7.0 | 0.00 | 0.00 | 0.00 | 29 | 1010.8 |
| 20260830214512 | 102 | 236 | 2.0 | 7.0 | 0.00 | 0.00 | 0.00 | 29 | 1010.8 |
| 20260830213011 | 101 | 131 | 1.0 | 8.0 | 0.00 | 0.00 | 0.00 | 29 | 1010.8 |
| 20260830211519 | 101 | 68 | 2.0 | 8.0 | 0.00 | 0.00 | 0.00 | 30 | 1011.0 |
| 20260830210011 | 102 | 136 | 2.0 | 12.0 | 0.00 | 0.00 | 0.00 | 30 | 1011.3 |
| 20260830204506 | 102 | 137 | 1.0 | 8.0 | 0.00 | 0.00 | 0.00 | 30 | 1011.4 |
| 20260830203005 | 101 | 101 | 3.0 | 15.0 | 0.00 | 0.00 | 0.00 | 30 | 1011.7 |
| 20260830201559 | 100 | 162 | 3.0 | 11.0 | 0.00 | 0.00 | 0.00 | 32 | 1011.9 |
| 20260830200100 | 99 | 165 | 3.0 | 7.0 | 0.00 | 0.00 | 0.00 | 33 | 1012.0 |
| 20260830194552 | 99 | 57 | 1.0 | 9.0 | 0.00 | 0.00 | 0.00 | 32 | 1012.3 |
| 20260830193051 | 99 | 184 | 1.0 | 7.0 | 0.00 | 0.00 | 0.00 | 35 | 1012.5 |
| 20260830191551 | 99 | 114 | 1.0 | 9.0 | 0.00 | 0.00 | 0.00 | 35 | 1012.7 |
| 20260830190047 | 99 | 80 | 2.0 | 7.0 | 0.00 | 0.00 | 0.00 | 35 | 1012.9 |
| 20260830184537 | 98 | 229 | 1.0 | 12.0 | 0.00 | 0.00 | 0.00 | 36 | 1013.1 |
| 20260830183037 | 98 | 65 | 3.0 | 11.0 | 0.00 | 0.00 | 0.00 | 36 | 1013.3 |
| 20260830181541 | 97 | 92 | 4.0 | 13.0 | 0.00 | 0.00 | 0.00 | 37 | 1013.5 |
| 20260830180049 | 97 | 184 | 4.0 | 15.0 | 0.00 | 0.00 | 0.00 | 37 | 1013.7 |
| 20260830174530 | 97 | 128 | 1.0 | 8.0 | 0.00 | 0.00 | 0.00 | 38 | 1014.0 |
| 20260830173050 | 96 | 80 | 3.0 | 9.0 | 0.00 | 0.00 | 0.00 | 40 | 1014.2 |
| 20260830171523 | 95 | 180 | 5.0 | 11.0 | 0.00 | 0.00 | 0.00 | 40 | 1014.5 |
| 20260830170024 | 95 | 143 | 4.0 | 8.0 | 0.00 | 0.00 | 0.00 | 43 | 1014.6 |
| 20260830164515 | 94 | 235 | 1.0 | 6.0 | 0.00 | 0.00 | 0.00 | 45 | 1014.7 |
| 20260830163013 | 94 | 257 | 1.0 | 4.0 | 0.00 | 0.00 | 0.00 | 46 | 1014.9 |
| 20260830161508 | 93 | 128 | 2.0 | 6.0 | 0.00 | 0.00 | 0.00 | 48 | 1014.9 |
| 20260830160005 | 94 | 149 | 2.0 | 8.0 | 0.00 | 0.00 | 0.00 | 48 | 1014.9 |
| 20260830154600 | 93 | 173 | 1.0 | 6.0 | 0.00 | 0.00 | 0.00 | 51 | 1015.0 |
| 20260830153055 | 91 | 220 | 1.0 | 5.0 | 0.00 | 0.00 | 0.00 | 55 | 1015.0 |
| 20260830151552 | 90 | 146 | 0.0 | 6.0 | 0.00 | 0.00 | 0.00 | 57 | 1014.9 |
| 20260830150049 | 88 | 123 | 0.0 | 2.0 | 0.00 | 0.00 | 0.00 | 61 | 1015.0 |
| 20260830144542 | 87 | 163 | 0.0 | 7.0 | 0.00 | 0.00 | 0.00 | 62 | 1014.9 |
| 20260830143038 | 85 | 258 | 1.0 | 5.0 | 0.00 | 0.00 | 0.00 | 65 | 1014.9 |
| 20260830141534 | 83 | 119 | 1.0 | 4.0 | 0.00 | 0.00 | 0.00 | 68 | 1014.9 |
| 20260830140030 | 82 | 188 | 0.0 | 4.0 | 0.00 | 0.00 | 0.00 | 71 | 1014.9 |
| 20260830134539 | 81 | 136 | 0.0 | 5.0 | 0.00 | 0.00 | 0.00 | 73 | 1014.8 |
| 20260830133032 | 80 | 154 | 0.0 | 2.0 | 0.00 | 0.00 | 0.00 | 74 | 1014.7 |
| 20260830131524 | 80 | 151 | 0.0 | 4.0 | 0.00 | 0.00 | 0.00 | 75 | 1014.6 |
| 20260830130019 | 79 | 142 | 0.0 | 1.0 | 0.00 | 0.00 | 0.00 | 75 | 1014.5 |
| 20260830124521 | 79 | 109 | 0.0 | 2.0 | 0.00 | 0.00 | 0.00 | 74 | 1014.4 |
| 20260830123019 | 79 | 124 | 0.0 | 1.0 | 0.00 | 0.00 | 0.00 | 74 | 1014.1 |
| 20260830121511 | 79 | 186 | 0.0 | 1.0 | 0.00 | 0.00 | 0.00 | 73 | 1013.9 |
| 20260830120009 | 80 | 134 | 0.0 | 0.0 | 0.00 | 0.00 | 0.00 | 72 | 1013.7 |
| 20260830114505 | 80 | 184 | 0.0 | 1.0 | 0.00 | 0.00 | 0.00 | 71 | 1013.5 |
| 20260830113006 | 80 | 148 | 0.0 | 2.0 | 0.00 | 0.00 | 0.00 | 71 | 1013.4 |
| 20260830111502 | 81 | 171 | 0.0 | 4.0 | 0.00 | 0.00 | 0.00 | 70 | 1013.3 |
| 20260830110131 | 81 | 155 | 1.0 | 4.0 | 0.00 | 0.00 | 0.00 | 69 | 1013.1 |
| 20260830104557 | 81 | 134 | 0.0 | 4.0 | 0.00 | 0.00 | 0.00 | 68 | 1013.0 |
| 20260830103056 | 82 | 112 | 1.0 | 4.0 | 0.00 | 0.00 | 0.00 | 67 | 1012.9 |
| 20260830101554 | 82 | 196 | 0.0 | 4.0 | 0.00 | 0.00 | 0.00 | 66 | 1012.8 |
| 20260830100053 | 82 | 189 | 0.0 | 5.0 | 0.00 | 0.00 | 0.00 | 66 | 1012.8 |
| 20260830094551 | 82 | 159 | 0.0 | 3.0 | 0.00 | 0.00 | 0.00 | 65 | 1012.9 |
| 20260830093114 | 83 | 166 | 0.0 | 3.0 | 0.00 | 0.00 | 0.00 | 65 | 1012.7 |
| 20260830091549 | 83 | 170 | 0.0 | 5.0 | 0.00 | 0.00 | 0.00 | 64 | 1012.8 |
| 20260830090051 | 83 | 136 | 0.0 | 3.0 | 0.00 | 0.00 | 0.00 | 63 | 1012.7 |
| 20260830084550 | 83 | 194 | 0.0 | 3.0 | 0.00 | 0.00 | 0.00 | 61 | 1012.8 |
| 20260830083044 | 84 | 241 | 0.0 | 3.0 | 0.00 | 0.00 | 0.00 | 60 | 1012.8 |
| 20260830081541 | 84 | 117 | 0.0 | 2.0 | 0.00 | 0.00 | 0.00 | 58 | 1012.8 |
| 20260830080044 | 85 | 153 | 0.0 | 3.0 | 0.00 | 0.00 | 0.00 | 57 | 1012.8 |
| 20260830074600 | 85 | 204 | 1.0 | 4.0 | 0.00 | 0.00 | 0.00 | 56 | 1012.8 |
| 20260830073037 | 86 | 165 | 0.0 | 5.0 | 0.00 | 0.00 | 0.00 | 55 | 1012.8 |
| 20260830071539 | 86 | 121 | 0.0 | 5.0 | 0.00 | 0.00 | 0.00 | 54 | 1012.7 |
| 20260830070031 | 87 | 215 | 0.0 | 5.0 | 0.00 | 0.00 | 0.00 | 53 | 1012.8 |
| 20260830064534 | 87 | 186 | 1.0 | 5.0 | 0.00 | 0.00 | 0.00 | 52 | 1012.9 |
| 20260830063028 | 87 | 133 | 1.0 | 7.0 | 0.00 | 0.00 | 0.00 | 51 | 1012.9 |
| 20260830061529 | 87 | 77 | 1.0 | 4.0 | 0.00 | 0.00 | 0.00 | 51 | 1012.9 |
| 20260830060026 | 88 | 176 | 1.0 | 7.0 | 0.00 | 0.00 | 0.00 | 50 | 1013.0 |
| 20260830054526 | 88 | 180 | 1.0 | 4.0 | 0.00 | 0.00 | 0.00 | 49 | 1013.0 |